AirNav   SIMCOM
 
 520 users online  

24FA Lake Weir Seaplane Base
Oklawaha, Florida, USA

GOING TO OKLAWAHA?


FAA INFORMATION EFFECTIVE 09 NOVEMBER 2017

Location

FAA Identifier: 24FA
Lat/Long: 29-02-03.9330N / 081-57-02.3040W
29-02.065550N / 081-57.038400W
29.0344258 / -81.9506400
(estimated)
Elevation: 56 ft. / 17 m (estimated)
Variation: 03W (1985)
From city: 2 miles W of OKLAWAHA, FL
Time zone: UTC -5 (UTC -4 during Daylight Saving Time)
Zip code: 32179

Seaplane Base Operations

Seaplane Base use: Private use. Permission required prior to landing
Control tower: no
ARTCC: JACKSONVILLE CENTER
FSS: GAINESVILLE FLIGHT SERVICE STATION
Attendance: UNATNDD
Wind indicator: no
Segmented circle: no

Seaplane Base Communications

WX ASOS at LEE (15 nm SE): 134.325 (352-787-1565)
WX AWOS-3PT at OCF (17 nm NW): 128.125 (352-237-8525)

Nearby radio navigation aids

VOR radial/distance  VOR name  Freq  Var
OCFr121/16.8OCALA VORTAC113.7000E

 
NDB name  Hdg/Dist  Freq  Var  ID
LEESBURG334/15.033504WLEE .-.. . .

Seaplane Base Services

Parking: buoy
Airframe service: NONE
Powerplant service: NONE

Runway Information

Runway E/W

Dimensions: 15000 x 4000 ft. / 4572 x 1219 m
Surface: water
RUNWAY E  RUNWAY W
Traffic pattern: leftleft

Runway N/S

Dimensions: 15000 x 4000 ft. / 4572 x 1219 m
Surface: water
RUNWAY N  RUNWAY S
Traffic pattern: leftleft

Seaplane Base Ownership and Management from official FAA records

Ownership: Privately-owned
Owner: ARLENE S. GREEN
RR 2, BOX 50
OKLAWAHA, FL 32679
Phone 904-288-2276
Manager: ARLENE S. GREEN
12392 SE HWY 25
32179
Phone 904-288-2276

Seaplane Base Operational Statistics

Aircraft based on the field: 1
Multi engine airplanes: 1
    

Additional Remarks

TREES ON ALL SIDES.

Instrument Procedures

There are no published instrument procedures at 24FA.

Some nearby airports with instrument procedures:

KLEE - Leesburg International Airport (15 nm SE)
KOCF - Ocala International Airport-Jim Taylor Field (17 nm NW)
X23 - Umatilla Municipal Airport (17 nm SE)
X35 - Marion County Airport (22 nm W)
KINF - Inverness Airport (24 nm SW)
 
Loc | Ops | Rwys | IFR | FBO | Links
Com | Nav | Svcs | Stats | Notes


 
Area around 24FA (Lake Weir Seaplane Base)
 
Road maps at: MapQuest Bing Google
 
Aerial photo
No photo
 
Sectional chart

 
Airport distance calculator
Flying to Lake Weir Seaplane Base? Find the distance to fly.

From to 24FA

Sunrise and sunset
Times for 23-Nov-2017
 Local
(UTC-5)
 Zulu
(UTC)
Morning civil twilight06:3311:33
Sunrise06:5911:59
Sunset17:3022:30
Evening civil twilight17:5522:55

Current date and time
Zulu (UTC)  24-Nov-2017 04:55:56
Local (UTC-5)  23-Nov-2017 23:55:56
 
METAR
KVVG 
7nm SE 
240430Z AUTO 07006G13KT 3SM BR 19/19 A2976 RMK A01
KLEE 
15nm SE 
240353Z AUTO 01009KT 10SM OVC006 19/19 A2986 RMK AO2 SLP108 T01940189
KOCF 
16nm NW 
240351Z AUTO 01007KT 10SM OVC006 17/17 A2988 RMK AO2 RAE0258 SLP120 P0000 T01720167
TAF
KLEE 
15nm SE 
231746Z 2318/2418 01008KT P6SM VCSH BKN015 OVC025 TEMPO 2318/2322 2SM +SHRA BKN012 FM240000 02006KT P6SM VCSH BKN015 FM240600 01005KT 6SM BR BKN008 OVC010 FM241500 01008KT P6SM VCSH BKN015
NOTAMs
Click for the latest NOTAMs
NOTAMs are issued by the DoD/FAA and will open in a separate window not controlled by AirNav.

 

 
 

Would you like to see your business listed on this page?

 If your business provides an interesting product or service to pilots, flight crews, aircraft, or users of the Lake Weir Seaplane Base, you should consider listing it here.  To start the listing process, click on the button below
 
Add a business
 

Other Pages about Lake Weir Seaplane Base

Update a link
 
Copyright © AirNav, LLC. All rights reserved. Privacy Policy  Contact